Stations météo

réclame
Mon MeteoGroup
Bergen, Allemagne (10238): Température de l'air & dewpoint: 02.07.2020 16:00:00 - 08.07.2020 16:00:00 (CEST)Bergen, Allemagne (10238): Vitesse du vent & gusts: 02.07.2020 16:00:00 - 08.07.2020 16:00:00 (CEST)Bergen, Allemagne (10238): Direction du vent: 02.07.2020 16:00:00 - 08.07.2020 16:00:00 (CEST)Bergen, Allemagne (10238): reduced air pressure: 02.07.2020 16:00:00 - 08.07.2020 16:00:00 (CEST)Bergen, Allemagne (10238): visibility: 02.07.2020 16:00:00 - 08.07.2020 16:00:00 (CEST)
Date & Time tt [°C] td [°C] ff [km/h] ff [knt] fx [km/h] fx [knt] dd ppp [hPa] vv [km]
08.07.2020 16:00:00 16,3 10,4 11 6 - - S 1015,4 10
08.07.2020 15:00:00 16,6 10,2 11 6 - - S 1015,4 10
08.07.2020 14:00:00 16,6 10,2 14 8 - - S 1015,2 10
08.07.2020 13:00:00 15,4 10,8 11 6 - - S 1015,3 10
08.07.2020 12:00:00 14,0 10,2 11 6 - - S 1015,4 10
08.07.2020 11:00:00 13,8 10,3 11 6 - - S 1015,2 10
08.07.2020 10:00:00 13,3 10,4 7 4 - - S 1015,0 10
08.07.2020 09:00:00 13,2 10,5 7 4 - - S 1014,9 10
08.07.2020 08:00:00 12,2 10,3 7 4 - - N 1015,0 10
08.07.2020 07:00:00 11,4 10,1 4 2 - - S 1015,0 10
08.07.2020 06:00:00 11,2 10,3 0 0 - - N 1015,1 10
08.07.2020 05:00:00 11,3 9,7 4 2 - - S 1015,3 10
08.07.2020 04:00:00 11,3 9,7 4 2 - - N 1015,5 10
08.07.2020 03:00:00 11,3 9,8 4 2 - - S 1015,8 10
08.07.2020 02:00:00 11,8 9,5 4 2 - - S 1016,1 10
08.07.2020 01:00:00 12,1 10,0 4 2 - - S 1016,3 10
08.07.2020 00:00:00 12,4 10,1 4 2 - - N 1016,7 10
07.07.2020 23:00:00 12,9 10,1 4 2 - - S 1016,4 10
07.07.2020 22:00:00 13,3 9,7 4 2 - - N 1016,4 10
07.07.2020 21:00:00 13,7 9,9 4 2 - - N 1016,5 10
07.07.2020 20:00:00 14,0 10,3 4 2 - - SW 1016,6 10
07.07.2020 19:00:00 13,7 10,7 7 4 - - WNW 1017,1 10
07.07.2020 18:00:00 14,9 9,8 14 8 - - W 1016,9 10
07.07.2020 17:00:00 18,1 8,4 7 4 - - S 1016,4 10
07.07.2020 16:00:00 18,8 8,1 18 10 - - S 1016,7 10
07.07.2020 15:00:00 18,4 8,3 11 6 - - SSW 1017,0 10
07.07.2020 14:00:00 18,2 7,1 7 4 - - SSW 1017,6 10
07.07.2020 13:00:00 17,7 7,5 11 6 - - S 1018,3 10
07.07.2020 12:00:00 16,3 7,8 11 6 - - SSW 1018,8 10
07.07.2020 11:00:00 15,8 8,4 11 6 - - S 1019,0 10
07.07.2020 10:00:00 14,7 8,3 7 4 - - W 1019,4 10
07.07.2020 09:00:00 13,4 9,1 7 4 - - SW 1019,6 10
07.07.2020 08:00:00 11,7 9,3 7 4 - - S 1019,8 10
07.07.2020 07:00:00 9,7 9,2 7 4 - - S 1019,6 10
07.07.2020 06:00:00 8,9 8,6 4 2 - - N 1019,1 10
07.07.2020 05:00:00 9,2 8,9 4 2 - - N 1018,8 10
07.07.2020 04:00:00 9,8 9,4 4 2 - - SW 1018,8 10
07.07.2020 03:00:00 9,9 9,3 4 2 - - S 1018,8 10
07.07.2020 02:00:00 10,6 9,6 4 2 - - WSW 1018,6 10
07.07.2020 01:00:00 11,3 9,7 4 2 - - N 1018,3 10
07.07.2020 00:00:00 12,0 10,1 4 2 - - SW 1017,8 10
06.07.2020 23:00:00 12,4 10,2 4 2 - - WSW 1017,4 10
06.07.2020 22:00:00 13,1 9,8 7 4 - - WNW 1016,8 10
06.07.2020 21:00:00 13,6 10,4 7 4 - - WNW 1015,7 10
06.07.2020 20:00:00 13,4 11,4 7 4 - - WNW 1015,1 10
06.07.2020 19:00:00 16,3 9,5 7 4 - - S 1014,2 10
06.07.2020 18:00:00 16,5 11,9 11 6 - - S 1013,7 10
06.07.2020 17:00:00 14,8 11,9 14 8 - - S 1013,3 10
06.07.2020 16:00:00 13,5 11,9 4 2 47 25 SSW 1013,1 10
06.07.2020 15:00:00 17,8 9,3 11 6 - - SW 1011,5 10
06.07.2020 14:00:00 14,9 9,3 14 8 - - SSW 1011,5 10
06.07.2020 13:00:00 13,8 11,8 11 6 - - SSW 1010,9 10
06.07.2020 12:00:00 15,6 10,8 14 8 - - SSW 1010,0 10
06.07.2020 11:00:00 14,1 11,5 11 6 - - SSW 1010,0 10
06.07.2020 10:00:00 11,7 9,6 11 6 - - WSW 1010,0 10
06.07.2020 09:00:00 15,5 9,6 11 6 - - SSW 1009,2 10
06.07.2020 08:00:00 14,5 9,9 14 8 - - S 1008,9 10
06.07.2020 07:00:00 13,3 9,6 7 4 - - S 1008,8 10
06.07.2020 06:00:00 14,9 9,7 14 8 - - S 1008,4 10
06.07.2020 05:00:00 15,0 9,6 11 6 - - S 1007,9 10
06.07.2020 04:00:00 15,3 10,1 11 6 - - SSW 1007,7 10
06.07.2020 03:00:00 15,6 10,3 7 4 - - S 1007,8 10
06.07.2020 02:00:00 16,1 11,5 7 4 - - S 1007,7 10
06.07.2020 01:00:00 17,1 11,8 7 4 - - S 1007,6 10
06.07.2020 00:00:00 17,0 11,8 4 2 - - N 1008,0 10
05.07.2020 23:00:00 17,7 11,9 4 2 - - W 1008,1 10
05.07.2020 22:00:00 19,1 12,6 4 2 - - N 1007,9 10
05.07.2020 21:00:00 20,5 12,8 11 6 - - S 1007,4 10
05.07.2020 20:00:00 21,2 13,0 11 6 - - SSW 1007,5 10
05.07.2020 19:00:00 21,7 15,0 11 6 - - SSW 1007,6 10
05.07.2020 18:00:00 22,2 16,6 11 6 - - S 1007,6 10
05.07.2020 17:00:00 21,6 16,6 7 4 - - SW 1007,8 8
05.07.2020 16:00:00 20,6 17,8 11 6 - - SSW 1007,8 10
05.07.2020 15:00:00 21,6 17,2 22 12 - - S 1008,1 10
05.07.2020 14:00:00 19,2 17,2 11 6 - - S 1008,3 6
05.07.2020 13:00:00 20,2 16,3 18 10 50 27 S 1008,3 10
05.07.2020 12:00:00 20,6 16,2 18 10 - - S 1007,9 10
05.07.2020 11:00:00 20,2 16,1 14 8 - - S 1008,0 10
05.07.2020 10:00:00 20,0 16,2 18 10 - - S 1007,7 10
05.07.2020 09:00:00 18,5 16,6 14 8 - - S 1008,1 10
05.07.2020 08:00:00 19,4 16,3 14 8 - - S 1007,8 10
05.07.2020 07:00:00 19,0 16,8 14 8 - - S 1007,9 10
05.07.2020 06:00:00 18,6 16,9 14 8 - - S 1008,3 10
05.07.2020 05:00:00 18,4 16,9 14 8 - - S 1008,6 8
05.07.2020 04:00:00 18,3 16,8 14 8 - - S 1008,9 8
05.07.2020 03:00:00 17,7 16,7 14 8 - - S 1009,7 8
05.07.2020 02:00:00 17,8 16,4 11 6 - - S 1010,1 8
05.07.2020 01:00:00 17,7 16,4 11 6 - - S 1010,6 10
05.07.2020 00:00:00 17,3 16,3 11 6 - - S 1011,1 8
04.07.2020 23:00:00 17,6 15,9 11 6 - - S 1011,5 8
04.07.2020 22:00:00 18,8 15,3 11 6 - - S 1011,7 10
04.07.2020 21:00:00 18,5 15,4 11 6 - - S 1011,7 8
04.07.2020 20:00:00 18,1 15,4 11 6 - - S 1012,2 8
04.07.2020 19:00:00 18,6 14,9 11 6 47 25 S 1012,2 8
04.07.2020 18:00:00 20,2 13,7 14 8 - - S 1011,9 10
04.07.2020 17:00:00 20,4 13,2 18 10 - - S 1012,0 10
04.07.2020 16:00:00 20,8 13,0 14 8 47 25 SSW 1012,0 10
04.07.2020 15:00:00 21,3 12,5 22 12 - - S 1011,9 10
04.07.2020 14:00:00 19,2 12,4 18 10 - - S 1012,5 10
04.07.2020 13:00:00 18,5 12,7 14 8 - - S 1012,9 10
04.07.2020 12:00:00 17,8 12,4 14 8 - - S 1013,4 10
04.07.2020 11:00:00 18,1 12,1 18 10 - - SSW 1013,4 10
04.07.2020 10:00:00 17,7 11,4 18 10 - - S 1013,5 10
04.07.2020 09:00:00 16,9 11,1 14 8 - - S 1013,8 10
04.07.2020 08:00:00 15,5 11,4 11 6 - - S 1013,8 10
04.07.2020 07:00:00 16,4 9,9 14 8 - - S 1013,9 10
04.07.2020 06:00:00 16,2 10,0 14 8 - - S 1013,9 10
04.07.2020 05:00:00 15,6 11,0 11 6 - - S 1013,9 10
04.07.2020 04:00:00 15,8 11,8 14 8 - - S 1014,1 10
04.07.2020 03:00:00 15,7 11,9 11 6 - - S 1014,5 10
04.07.2020 02:00:00 14,9 12,0 7 4 - - S 1014,9 10
04.07.2020 01:00:00 15,7 12,2 4 2 - - N 1015,0 10
04.07.2020 00:00:00 17,0 12,5 7 4 - - S 1015,1 10
03.07.2020 23:00:00 16,8 12,6 7 4 - - S 1015,4 10
03.07.2020 22:00:00 18,3 12,4 7 4 - - S 1015,2 10
03.07.2020 21:00:00 19,3 12,3 11 6 - - S 1015,3 10
03.07.2020 20:00:00 19,7 12,0 11 6 - - S 1015,0 10
03.07.2020 19:00:00 20,0 11,9 14 8 - - S 1015,0 10
03.07.2020 18:00:00 20,5 12,1 14 8 - - S 1015,2 10
03.07.2020 17:00:00 20,5 11,7 14 8 - - S 1015,3 10
03.07.2020 16:00:00 20,8 11,3 14 8 - - S 1015,3 10
03.07.2020 15:00:00 20,0 11,5 14 8 - - SSW 1015,5 10
03.07.2020 14:00:00 20,1 12,8 11 6 - - SSW 1015,7 10
03.07.2020 13:00:00 18,9 13,1 14 8 - - S 1015,8 10
03.07.2020 12:00:00 18,0 12,5 11 6 - - SSW 1015,6 10
03.07.2020 11:00:00 17,1 13,2 7 4 - - S 1015,5 10
03.07.2020 10:00:00 16,2 13,2 7 4 - - SSW 1015,3 10
03.07.2020 09:00:00 15,7 13,6 7 4 - - S 1015,1 10
03.07.2020 08:00:00 14,6 12,9 7 4 - - N 1014,9 10
03.07.2020 07:00:00 12,7 12,3 7 4 - - N 1014,6 8
03.07.2020 06:00:00 11,9 11,7 4 2 - - S 1014,3 6
03.07.2020 05:00:00 12,3 12,1 4 2 - - S 1013,8 5
03.07.2020 04:00:00 13,4 13,1 4 2 - - N 1013,6 10
03.07.2020 03:00:00 14,0 13,7 4 2 - - N 1013,2 10
03.07.2020 02:00:00 14,6 14,1 4 2 - - N 1013,0 10
03.07.2020 01:00:00 15,0 14,3 4 2 - - WSW 1012,7 10
03.07.2020 00:00:00 15,1 14,3 7 4 - - S 1012,1 10
02.07.2020 23:00:00 15,0 14,5 4 2 - - N 1012,1 10
02.07.2020 22:00:00 15,4 14,8 4 2 - - S 1011,4 10
02.07.2020 21:00:00 15,8 15,1 4 2 - - N 1011,2 10
02.07.2020 20:00:00 15,7 15,1 0 0 - - N 1010,8 10
02.07.2020 19:00:00 15,5 13,9 7 4 - - W 1010,6 10
02.07.2020 18:00:00 19,5 13,7 18 10 - - S 1009,5 10
02.07.2020 17:00:00 21,6 11,7 14 8 - - S 1009,3 10
02.07.2020 16:00:00 21,9 13,7 14 8 - - SSW 1009,4 10

tt = Température de l'air
td = dewpoint
ff = Vitesse du vent
fx = gusts
dd = Direction du vent
ppp = reduced air pressure
vv = visibility

stations d'obs. à proximité